{"data":{"norad_id":64844,"epoch":"2026-09-20T12:46:16.076928Z","epoch_age_seconds":121378,"freshness":"FRESH","line1":"1 64844U 25152C   26263.53213052  .00014506  00000+0  45072-3 0  9997","line2":"2 64844  97.2842 114.0105 0001961  84.0199 276.1267 15.33448180 64828","mean_motion":15.3344818,"eccentricity":0.0001961,"inclination_deg":97.2842,"raan_deg":114.0105,"arg_perigee_deg":84.0199,"mean_anomaly_deg":276.1267,"bstar":0.00045072,"rev_number":6482,"period_min":93.906009918118,"perigee_km":464.19166922497,"apogee_km":466.87575687863,"semimajor_km":6843.6707130518,"source":"CELESTRAK","updated_at":"2026-09-21T09:00:35.448542Z"}}